NKS3002 KMCO-KDFW

Flight info

Callsign NKS3002
Flight time N/A
Altitude 28000
Route OSPRY1 REMIS Y280 REDFN Q105 HRV J58 AEX PNUTS BEREE3
Aircraft A21N/M-SDE2E3FGHIRWXY/LB1

Departure

Time 2026-05-04 17:18
Airport Orlando International Airport (KMCO)

Arrival

Time N/A
Airport Dallas Fort Worth International Airport (KDFW)
Time Latitude Longitude Altitude Speed Heading
2026-05-04 17:02 28.43646 -81.29999 106 ft 0 kts 266°
2026-05-04 17:07 28.43647 -81.29985 115 ft 4 kts 260°
2026-05-04 17:08 28.43655 -81.29957 104 ft 4 kts 235°
2026-05-04 17:08 28.43682 -81.29911 106 ft 4 kts 230°
2026-05-04 17:08 28.43702 -81.29896 106 ft 4 kts 185°
2026-05-04 17:09 28.43721 -81.29897 105 ft 0 kts 172°
2026-05-04 17:12 28.43717 -81.29896 105 ft 2 kts 172°
2026-05-04 17:13 28.43549 -81.29853 106 ft 14 kts 99°
2026-05-04 17:14 28.43810 -81.29852 109 ft 13 kts 332°
2026-05-04 17:14 28.43870 -81.29920 108 ft 9 kts 284°
2026-05-04 17:14 28.43819 -81.29964 107 ft 0 kts 182°
2026-05-04 17:15 28.43767 -81.29922 105 ft 9 kts 141°
2026-05-04 17:16 28.43556 -81.29867 107 ft 18 kts 114°
2026-05-04 17:16 28.43489 -81.29589 111 ft 2 kts 176°
2026-05-04 17:17 28.43483 -81.29588 111 ft 2 kts 176°
2026-05-04 17:17 28.42360 -81.29575 105 ft 147 kts 179°
2026-05-04 17:18 28.41196 -81.29589 319 ft 175 kts 178°
2026-05-04 17:18 28.38801 -81.29940 1452 ft 189 kts 212°
2026-05-04 17:19 28.36963 -81.32402 2267 ft 219 kts 231°
2026-05-04 17:19 28.35016 -81.35419 3037 ft 259 kts 251°
2026-05-04 17:20 28.34294 -81.39618 4239 ft 278 kts 261°
2026-05-04 17:20 28.33661 -81.43971 5627 ft 280 kts 260°
2026-05-04 17:20 28.33324 -81.46147 6515 ft 280 kts 260°
2026-05-04 17:21 28.32642 -81.50462 8214 ft 275 kts 259°
2026-05-04 17:21 28.31956 -81.54725 9815 ft 276 kts 259°
2026-05-04 17:22 28.31605 -81.56887 10388 ft 284 kts 259°
2026-05-04 17:22 28.31233 -81.59160 10664 ft 302 kts 259°
2026-05-04 17:23 28.29985 -81.66817 11336 ft 355 kts 259°
2026-05-04 17:23 28.29523 -81.69637 11549 ft 372 kts 259°
2026-05-04 17:23 28.28544 -81.75610 12138 ft 393 kts 259°
2026-05-04 17:24 28.28040 -81.78674 12610 ft 397 kts 260°
2026-05-04 17:24 28.26502 -81.88008 14156 ft 407 kts 260°
2026-05-04 17:25 28.25978 -81.91172 14627 ft 410 kts 260°
2026-05-04 17:25 28.24919 -81.97558 15771 ft 414 kts 260°
2026-05-04 17:26 28.23849 -82.03994 16888 ft 416 kts 260°
2026-05-04 17:26 28.22222 -82.13718 18447 ft 421 kts 260°
2026-05-04 17:27 28.21130 -82.20256 19299 ft 423 kts 260°
2026-05-04 17:27 28.20026 -82.26835 20183 ft 426 kts 260°
2026-05-04 17:28 28.18899 -82.33507 21052 ft 430 kts 260°
2026-05-04 17:29 28.17199 -82.43566 22535 ft 436 kts 260°
2026-05-04 17:29 28.15452 -82.53752 23734 ft 442 kts 259°
2026-05-04 17:30 28.13700 -82.63942 25085 ft 435 kts 260°
2026-05-04 17:31 28.12561 -82.70621 26017 ft 429 kts 260°
2026-05-04 17:31 28.10868 -82.80471 27419 ft 420 kts 261°
2026-05-04 17:32 28.09759 -82.86925 28324 ft 415 kts 261°
2026-05-04 17:33 28.08099 -82.96463 29605 ft 408 kts 261°
2026-05-04 17:33 28.07549 -82.99604 30017 ft 406 kts 261°
2026-05-04 17:34 28.05925 -83.08944 30964 ft 401 kts 261°
2026-05-04 17:34 28.05384 -83.12032 31238 ft 400 kts 261°
2026-05-04 17:35 28.03769 -83.21264 31987 ft 398 kts 261°
2026-05-04 17:35 28.02690 -83.27391 32122 ft 396 kts 261°
2026-05-04 17:36 28.01611 -83.33506 32099 ft 396 kts 261°
2026-05-04 17:36 28.00530 -83.39620 32088 ft 396 kts 261°
2026-05-04 17:37 27.99820 -83.45784 32092 ft 395 kts 267°
2026-05-04 17:37 27.99537 -83.50980 32086 ft 395 kts 267°
2026-05-04 17:38 27.99190 -83.57186 32106 ft 396 kts 267°
2026-05-04 17:38 27.99009 -83.60300 32267 ft 397 kts 267°
2026-05-04 17:38 27.98826 -83.63413 32508 ft 396 kts 267°
2026-05-04 17:38 27.98644 -83.66519 32748 ft 395 kts 267°
2026-05-04 17:39 27.98282 -83.72715 33116 ft 396 kts 266°
2026-05-04 17:39 27.97910 -83.78927 33111 ft 395 kts 266°
2026-05-04 17:40 27.97544 -83.85132 33101 ft 395 kts 267°
2026-05-04 17:40 27.97172 -83.91335 32973 ft 395 kts 267°
2026-05-04 17:41 27.96985 -83.94443 32750 ft 396 kts 267°
2026-05-04 17:41 27.96796 -83.97555 32508 ft 397 kts 267°
2026-05-04 17:41 27.96605 -84.00674 32261 ft 398 kts 267°
2026-05-04 17:41 27.96415 -84.03801 32079 ft 399 kts 267°
2026-05-04 17:42 27.96031 -84.10076 32076 ft 400 kts 267°
2026-05-04 17:42 27.95638 -84.16360 32095 ft 400 kts 266°
2026-05-04 17:43 27.95238 -84.22637 32095 ft 400 kts 266°
2026-05-04 17:43 27.94837 -84.28919 32082 ft 400 kts 266°
2026-05-04 17:44 27.94437 -84.35211 32078 ft 401 kts 266°
2026-05-04 17:44 27.94040 -84.41499 32089 ft 401 kts 266°
2026-05-04 17:45 27.93654 -84.47789 32091 ft 401 kts 266°
2026-05-04 17:45 27.93248 -84.54079 32091 ft 401 kts 266°
2026-05-04 17:46 27.92837 -84.60372 32088 ft 401 kts 266°
2026-05-04 17:46 27.92428 -84.66661 32089 ft 401 kts 266°
2026-05-04 17:47 27.92007 -84.72964 32093 ft 403 kts 267°
2026-05-04 17:47 27.91587 -84.79282 32092 ft 403 kts 267°
2026-05-04 17:48 27.91167 -84.85593 32088 ft 403 kts 267°
2026-05-04 17:48 27.90739 -84.91915 32088 ft 403 kts 267°
2026-05-04 17:49 27.90308 -84.98229 32089 ft 403 kts 266°
2026-05-04 17:49 27.89877 -85.04549 32089 ft 403 kts 266°
2026-05-04 17:50 27.89437 -85.10872 32086 ft 404 kts 267°
2026-05-04 17:50 27.88996 -85.17202 32083 ft 404 kts 267°
2026-05-04 17:51 27.88616 -85.23490 32083 ft 403 kts 271°
2026-05-04 17:51 27.89508 -85.29725 32087 ft 404 kts 286°
2026-05-04 17:52 27.91351 -85.35736 32082 ft 405 kts 287°
2026-05-04 17:52 27.93211 -85.41747 32083 ft 405 kts 287°
2026-05-04 17:53 27.95032 -85.47762 32087 ft 404 kts 287°
2026-05-04 17:53 27.96841 -85.53786 32086 ft 404 kts 287°
2026-05-04 17:54 27.98670 -85.59807 32082 ft 405 kts 287°
2026-05-04 17:54 28.00480 -85.65836 32092 ft 405 kts 287°
2026-05-04 17:55 28.02286 -85.71877 32089 ft 405 kts 287°
2026-05-04 17:55 28.04096 -85.77915 32086 ft 405 kts 287°
2026-05-04 17:56 28.05906 -85.83948 32085 ft 405 kts 287°
2026-05-04 17:56 28.07723 -85.89988 32091 ft 405 kts 287°
2026-05-04 17:57 28.09535 -85.96071 32095 ft 405 kts 287°
2026-05-04 17:57 28.11325 -86.02077 32087 ft 405 kts 287°
2026-05-04 17:58 28.13121 -86.08123 32086 ft 405 kts 287°
2026-05-04 17:58 28.14915 -86.14179 32094 ft 405 kts 287°
2026-05-04 17:59 28.16707 -86.20255 32084 ft 405 kts 288°